When you browse on this site, cookies collect data to enhance your experience and personalize the content and advertising you see.
Visit our Privacy Policy to learn more. By continuing to use the site, you agree to this use of cookies and data.
  • En España
  • Lista de países
  • Para 7 días
  • Temperatura del agua
  • Mapa Satelital
  • El tiempo en el mapa
  • Informadores
  • user-avatar
    Iniciar sesión

    Tiempo cada hora Atlixco

    Hoy, 16 Diciembre, Domingo

    Tiempo Temperatura Precipitaciones Viento Presión Humedad
    00:00 +13°C° 0 mm 1 mps 613 mmHg 68%
    01:00 +13°C° 0 mm 1 mps 613 mmHg 69%
    02:00 +13°C° 0 mm 1 mps 613 mmHg 71%
    03:00 +12°C° 0 mm 1 mps 613 mmHg 72%
    04:00 +12°C° 0 mm 1 mps 613 mmHg 73%
    05:00 +12°C° 0 mm 1 mps 613 mmHg 74%
    06:00 +13°C° 0 mm 1 mps 614 mmHg 68%
    07:00 +15°C° 0 mm 1 mps 615 mmHg 63%
    08:00 +16°C° 0 mm 1 mps 616 mmHg 57%
    09:00 +19°C° 0 mm 1 mps 616 mmHg 51%
    10:00 +21°C° 0 mm 1 mps 616 mmHg 45%
    11:00 +23°C° 0 mm 1 mps 616 mmHg 39%
    12:00 +23°C° 0 mm 2 mps 616 mmHg 38%
    13:00 +24°C° 0 mm 2 mps 615 mmHg 37%
    14:00 +24°C° 0 mm 2 mps 615 mmHg 36%
    15:00 +23°C° 0 mm 2 mps 614 mmHg 42%
    16:00 +21°C° 0 mm 1 mps 613 mmHg 47%
    17:00 +19°C° 0 mm 1 mps 613 mmHg 53%
    18:00 +18°C° 0 mm 1 mps 613 mmHg 55%
    19:00 +18°C° 0 mm 1 mps 614 mmHg 58%
    20:00 +16°C° 0 mm 1 mps 614 mmHg 61%
    21:00 +15°C° 0 mm 1 mps 614 mmHg 63%
    22:00 +15°C° 0 mm 1 mps 614 mmHg 65%
    23:00 +14°C° 0 mm 1 mps 614 mmHg 66%

    Mañana, 17 Diciembre, Lunes

    Tiempo Temperatura Precipitaciones Viento Presión Humedad
    00:00 +14°C° 0 mm 1 mps 613 mmHg 68%
    01:00 +14°C° 0 mm 1 mps 613 mmHg 69%
    02:00 +13°C° 0 mm 1 mps 612 mmHg 70%
    03:00 +13°C° 0 mm 1 mps 612 mmHg 71%
    04:00 +13°C° 0 mm 1 mps 612 mmHg 71%
    05:00 +12°C° 0 mm 1 mps 612 mmHg 72%
    06:00 +14°C° 0 mm 1 mps 613 mmHg 66%
    07:00 +15°C° 0 mm 1 mps 614 mmHg 61%
    08:00 +18°C° 0 mm 1 mps 615 mmHg 55%
    09:00 +20°C° 0 mm 1 mps 615 mmHg 51%
    10:00 +21°C° 0 mm 1 mps 615 mmHg 46%
    11:00 +23°C° 0 mm 2 mps 616 mmHg 41%
    12:00 +23°C° 0 mm 2 mps 615 mmHg 41%
    13:00 +24°C° 0 mm 2 mps 614 mmHg 40%
    14:00 +24°C° 0 mm 3 mps 614 mmHg 40%
    15:00 +21°C° 0 mm 2 mps 613 mmHg 46%
    16:00 +20°C° 0 mm 2 mps 613 mmHg 53%
    17:00 +19°C° 0 mm 1 mps 612 mmHg 59%
    18:00 +18°C° 0 mm 1 mps 612 mmHg 63%
    19:00 +16°C° 0 mm 1 mps 612 mmHg 66%
    20:00 +16°C° 0 mm 1 mps 612 mmHg 70%
    21:00 +15°C° 0 mm 1 mps 612 mmHg 71%
    22:00 +15°C° 0 mm 1 mps 612 mmHg 73%
    23:00 +15°C° 0 mm 1 mps 612 mmHg 74%

    Pasado mañana, 18 Diciembre, Martes

    Tiempo Temperatura Precipitaciones Viento Presión Humedad
    00:00 +14°C° 0 mm 1 mps 612 mmHg 75%
    01:00 +13°C° 0 mm 0 mps 611 mmHg 77%
    02:00 +13°C° 0 mm 0 mps 611 mmHg 78%
    03:00 +13°C° 0 mm 0 mps 611 mmHg 80%
    04:00 +12°C° 0 mm 0 mps 611 mmHg 81%
    05:00 +12°C° 0 mm 0 mps 611 mmHg 83%
    06:00 +13°C° 0 mm 0 mps 611 mmHg 78%
    07:00 +15°C° 0 mm 0 mps 612 mmHg 73%
    08:00 +16°C° 0 mm 0 mps 613 mmHg 68%
    09:00 +20°C° 0 mm 1 mps 613 mmHg 62%
    10:00 +20°C° 0 mm 2 mps 613 mmHg 55%
    11:00 +23°C° 0 mm 2 mps 613 mmHg 49%
    12:00 +22°C° 0 mm 3 mps 613 mmHg 47%
    13:00 +22°C° 0 mm 3 mps 612 mmHg 45%
    14:00 +24°C° 0 mm 3 mps 611 mmHg 44%
    15:00 +21°C° 0 mm 3 mps 611 mmHg 48%
    16:00 +20°C° 0 mm 2 mps 611 mmHg 53%
    17:00 +18°C° 0 mm 2 mps 610 mmHg 58%
    18:00 +17°C° 0 mm 2 mps 611 mmHg 60%
    19:00 +18°C° 0 mm 1 mps 611 mmHg 63%
    20:00 +16°C° 0 mm 1 mps 611 mmHg 65%
    21:00 +16°C° 0 mm 1 mps 611 mmHg 67%
    22:00 +15°C° 0 mm 1 mps 611 mmHg 69%
    23:00 +15°C° 0 mm 1 mps 610 mmHg 71%

    19 Diciembre, Miércoles

    Tiempo Temperatura Precipitaciones Viento Presión Humedad
    00:00 +14°C° 0 mm 1 mps 610 mmHg 71%
    01:00 +14°C° 0 mm 1 mps 609 mmHg 71%
    02:00 +13°C° 0 mm 1 mps 609 mmHg 70%
    03:00 +13°C° 0 mm 1 mps 609 mmHg 70%
    04:00 +13°C° 0 mm 1 mps 609 mmHg 69%
    05:00 +13°C° 0 mm 1 mps 609 mmHg 68%
    06:00 +14°C° 0 mm 1 mps 610 mmHg 64%
    07:00 +15°C° 0 mm 1 mps 611 mmHg 60%
    08:00 +16°C° 0 mm 1 mps 611 mmHg 56%
    09:00 +18°C° 0 mm 2 mps 612 mmHg 51%
    10:00 +20°C° 0 mm 3 mps 612 mmHg 45%
    11:00 +21°C° 0 mm 3 mps 612 mmHg 40%
    12:00 +22°C° 0 mm 4 mps 611 mmHg 39%
    13:00 +22°C° 0 mm 4 mps 611 mmHg 39%
    14:00 +22°C° 0 mm 5 mps 610 mmHg 38%
    15:00 +21°C° 0 mm 4 mps 610 mmHg 43%
    16:00 +19°C° 0 mm 3 mps 609 mmHg 48%
    17:00 +18°C° 0 mm 3 mps 609 mmHg 53%
    18:00 +17°C° 0 mm 2 mps 609 mmHg 55%
    19:00 +16°C° 0 mm 2 mps 610 mmHg 58%
    20:00 +15°C° 0 mm 2 mps 610 mmHg 61%
    21:00 +14°C° 0 mm 1 mps 610 mmHg 61%
    22:00 +14°C° 0 mm 1 mps 610 mmHg 62%
    23:00 +13°C° 0 mm 1 mps 610 mmHg 62%

    20 Diciembre, Jueves

    Tiempo Temperatura Precipitaciones Viento Presión Humedad
    00:00 +13°C° 0 mm 1 mps 609 mmHg 63%
    01:00 +12°C° 0 mm 1 mps 609 mmHg 63%
    02:00 +12°C° 0 mm 1 mps 609 mmHg 64%
    03:00 +12°C° 0 mm 1 mps 609 mmHg 65%
    04:00 +11°C° 0 mm 1 mps 609 mmHg 66%
    05:00 +11°C° 0 mm 1 mps 610 mmHg 67%
    06:00 +13°C° 0 mm 2 mps 611 mmHg 63%
    07:00 +14°C° 0 mm 2 mps 612 mmHg 60%
    08:00 +16°C° 0 mm 2 mps 613 mmHg 57%
    09:00 +17°C° 0 mm 2 mps 613 mmHg 50%
    10:00 +19°C° 0 mm 2 mps 614 mmHg 43%
    11:00 +21°C° 0 mm 2 mps 614 mmHg 35%
    12:00 +21°C° 0 mm 2 mps 614 mmHg 34%
    13:00 +22°C° 0 mm 1 mps 613 mmHg 32%
    14:00 +22°C° 0 mm 1 mps 613 mmHg 31%
    15:00 +20°C° 0 mm 2 mps 612 mmHg 34%
    16:00 +19°C° 0 mm 2 mps 612 mmHg 38%
    17:00 +17°C° 0 mm 2 mps 612 mmHg 42%
    18:00 +16°C° 0 mm 2 mps 612 mmHg 47%
    19:00 +14°C° 0 mm 3 mps 612 mmHg 52%
    20:00 +13°C° 0 mm 3 mps 612 mmHg 57%
    21:00 +12°C° 0 mm 3 mps 612 mmHg 61%
    22:00 +11°C° 0 mm 3 mps 612 mmHg 64%
    23:00 +11°C° 0 mm 3 mps 612 mmHg 67%

    21 Diciembre, Viernes

    Tiempo Temperatura Precipitaciones Viento Presión Humedad
    00:00 +10°C° 0 mm 3 mps 611 mmHg 66%
    01:00 +9°C° 0 mm 3 mps 611 mmHg 65%
    02:00 +9°C° 0 mm 3 mps 611 mmHg 63%
    03:00 +8°C° 0 mm 3 mps 611 mmHg 61%
    04:00 +8°C° 0 mm 3 mps 611 mmHg 58%
    05:00 +8°C° 0 mm 3 mps 611 mmHg 56%
    06:00 +9°C° 0 mm 3 mps 612 mmHg 49%
    07:00 +11°C° 0 mm 3 mps 613 mmHg 41%
    08:00 +12°C° 0 mm 3 mps 614 mmHg 34%
    09:00 +14°C° 0 mm 3 mps 614 mmHg 29%
    10:00 +18°C° 0 mm 3 mps 615 mmHg 23%
    11:00 +20°C° 0 mm 3 mps 615 mmHg 18%
    12:00 +20°C° 0 mm 3 mps 615 mmHg 17%
    13:00 +21°C° 0 mm 3 mps 614 mmHg 17%
    14:00 +21°C° 0 mm 3 mps 614 mmHg 17%
    15:00 +19°C° 0 mm 2 mps 613 mmHg 21%
    16:00 +17°C° 0 mm 2 mps 613 mmHg 26%
    17:00 +15°C° 0 mm 2 mps 612 mmHg 30%
    18:00 +14°C° 0 mm 2 mps 613 mmHg 33%
    19:00 +13°C° 0 mm 2 mps 613 mmHg 36%
    20:00 +12°C° 0 mm 2 mps 613 mmHg 40%
    21:00 +12°C° 0 mm 2 mps 612 mmHg 42%
    22:00 +10°C° 0 mm 2 mps 612 mmHg 44%
    23:00 +9°C° 0 mm 2 mps 612 mmHg 46%
    Mostrar más